Volver al catálogo

METEOR 2-8 DEB

ActivoPO
NORAD 38289·DEBRIS·🇷🇺 Russia

Lanzado Mar 25, 1982 desde Plesetsk Cosmodrome

Loading…

Próximos Pases (próximas 24 horas)

TLE

ActualizadoSource: Space-Track

Época: Sep 12, 2026, 08:53 UTC

1 38289U 82025BF  26255.37023403  .00001422  00000-0  58984-3 0  9995
2 38289  82.5251 128.2451 0016798 195.9296 164.1362 14.25887248347129

Sigue METEOR 2-8 DEB en tiempo real con AllMySat

Download on the App Store